| time (UTC) | temp F | wind direction | speed MPH | gust MPH | rain 1hr in | rain 24hr in | rain mn in | humidity % | barometer mb |
| 20260505195733 | 89 | 223 | 10.0 | 15.0 | 0.00 | 0.00 | 0.00 | 49 | 1004.1 |
| 20260505193731 | 88 | 210 | 6.0 | 12.0 | 0.00 | 0.00 | 0.00 | 51 | 1004.5 |
| 20260505190832 | 87 | 226 | 8.0 | 14.0 | 0.00 | 0.00 | 0.00 | 53 | 1004.5 |
| 20260505185832 | 87 | 223 | 7.0 | 17.0 | 0.00 | 0.00 | 0.00 | 55 | 1004.5 |
| 20260505184834 | 86 | 225 | 8.0 | 15.0 | 0.00 | 0.00 | 0.00 | 56 | 1004.4 |
| 20260505182932 | 85 | 230 | 6.0 | 11.0 | 0.00 | 0.00 | 0.00 | 58 | 1004.7 |
| 20260505180034 | 84 | 231 | 11.0 | 15.0 | 0.00 | 0.00 | 0.00 | 61 | 1004.7 |
| 20260505175033 | 83 | 191 | 7.0 | 11.0 | 0.00 | 0.00 | 0.00 | 62 | 1004.7 |
| 20260505174131 | 84 | 215 | 11.0 | 18.0 | 0.00 | 0.00 | 0.00 | 61 | 1004.8 |
| 20260505173132 | 83 | 197 | 4.0 | 11.0 | 0.00 | 0.00 | 0.00 | 64 | 1005.0 |
| 20260505172133 | 82 | 192 | 4.0 | 10.0 | 0.00 | 0.00 | 0.00 | 67 | 1005.0 |
| 20260505171133 | 81 | 202 | 4.0 | 11.0 | 0.00 | 0.00 | 0.00 | 66 | 1005.0 |
| 20260505170133 | 81 | 209 | 8.0 | 15.0 | 0.00 | 0.00 | 0.00 | 65 | 1004.9 |
| 20260505164150 | 80 | 201 | 8.0 | 18.0 | 0.00 | 0.00 | 0.00 | 67 | 1004.8 |
| 20260505162231 | 79 | 202 | 7.0 | 16.0 | 0.00 | 0.00 | 0.00 | 70 | 1004.6 |
| 20260505160331 | 78 | 207 | 8.0 | 13.0 | 0.00 | 0.00 | 0.00 | 71 | 1004.3 |
| 20260505152449 | 75 | 207 | 7.0 | 19.0 | 0.00 | 0.00 | 0.00 | 76 | 1004.5 |
| 20260505150532 | 75 | 202 | 13.0 | 22.0 | 0.00 | 0.00 | 0.00 | 77 | 1004.4 |
| 20260505140634 | 72 | 209 | 6.0 | 12.0 | 0.00 | 0.00 | 0.00 | 82 | 1004.5 |
| 20260505124831 | 69 | 193 | 8.0 | 18.0 | 0.00 | 0.00 | 0.00 | 86 | 1004.1 |
| 20260505122931 | 69 | 199 | 11.0 | 21.0 | 0.00 | 0.00 | 0.00 | 86 | 1003.8 |
| 20260505121933 | 69 | 198 | 3.0 | 9.0 | 0.00 | 0.00 | 0.00 | 87 | 1003.8 |
| 20260505120931 | 69 | 202 | 11.0 | 18.0 | 0.00 | 0.00 | 0.00 | 86 | 1003.7 |
| 20260505114931 | 69 | 191 | 13.0 | 20.0 | 0.00 | 0.00 | 0.00 | 87 | 1003.4 |
| 20260505113934 | 69 | 197 | 8.0 | 15.0 | 0.00 | 0.00 | 0.00 | 88 | 1003.6 |
| 20260505112947 | 69 | 199 | 10.0 | 16.0 | 0.00 | 0.00 | 0.00 | 88 | 1003.6 |
| 20260505111030 | 68 | 201 | 7.0 | 11.0 | 0.00 | 0.00 | 0.00 | 88 | 1003.5 |
| 20260505102033 | 68 | 198 | 7.0 | 15.0 | 0.00 | 0.00 | 0.00 | 87 | 1003.5 |
| 20260505100148 | 68 | 185 | 8.0 | 13.0 | 0.00 | 0.00 | 0.00 | 86 | 1003.4 |
| 20260505095231 | 68 | 192 | 10.0 | 15.0 | 0.00 | 0.00 | 0.00 | 87 | 1003.6 |
| 20260505094232 | 68 | 188 | 9.0 | 15.0 | 0.00 | 0.00 | 0.00 | 87 | 1003.9 |
| 20260505093230 | 68 | 175 | 7.0 | 11.0 | 0.00 | 0.00 | 0.00 | 87 | 1003.9 |
| 20260505091231 | 69 | 179 | 8.0 | 14.0 | 0.00 | 0.00 | 0.00 | 85 | 1003.9 |
| 20260505090232 | 69 | 187 | 8.0 | 13.0 | 0.00 | 0.00 | 0.00 | 86 | 1004.0 |
| 20260505085231 | 69 | 172 | 8.0 | 14.0 | 0.00 | 0.00 | 0.00 | 84 | 1004.0 |
| 20260505084330 | 69 | 174 | 8.0 | 13.0 | 0.00 | 0.00 | 0.00 | 84 | 1004.1 |
| 20260505083347 | 69 | 185 | 7.0 | 12.0 | 0.00 | 0.00 | 0.00 | 83 | 1004.3 |
| 20260505082434 | 69 | 176 | 9.0 | 15.0 | 0.00 | 0.00 | 0.00 | 82 | 1004.3 |
| 20260505080446 | 70 | 187 | 7.0 | 13.0 | 0.00 | 0.00 | 0.00 | 81 | 1004.1 |
| 20260505075532 | 70 | 173 | 11.0 | 18.0 | 0.00 | 0.00 | 0.00 | 80 | 1004.1 |
| 20260505074547 | 70 | 181 | 8.0 | 15.0 | 0.00 | 0.00 | 0.00 | 79 | 1004.3 |
| 20260505072632 | 70 | 180 | 7.0 | 13.0 | 0.00 | 0.00 | 0.00 | 80 | 1004.6 |
| 20260505071648 | 70 | 166 | 7.0 | 11.0 | 0.00 | 0.00 | 0.00 | 79 | 1004.8 |
| 20260505070631 | 70 | 179 | 7.0 | 12.0 | 0.00 | 0.00 | 0.00 | 78 | 1005.0 |
| 20260505064631 | 70 | 176 | 7.0 | 13.0 | 0.00 | 0.00 | 0.00 | 78 | 1005.3 |
| 20260505063632 | 70 | 169 | 7.0 | 13.0 | 0.00 | 0.00 | 0.00 | 77 | 1005.4 |
| 20260505062731 | 71 | 179 | 7.0 | 10.0 | 0.00 | 0.00 | 0.00 | 78 | 1005.6 |
| 20260505061831 | 71 | 171 | 8.0 | 16.0 | 0.00 | 0.00 | 0.00 | 77 | 1005.4 |
| 20260505060832 | 71 | 178 | 7.0 | 12.0 | 0.00 | 0.00 | 0.00 | 77 | 1005.4 |
| 20260505055831 | 71 | 169 | 5.0 | 8.0 | 0.00 | 0.00 | 0.00 | 76 | 1005.6 |
| 20260505054930 | 71 | 176 | 7.0 | 11.0 | 0.00 | 0.00 | 0.00 | 75 | 1005.4 |
| 20260505053947 | 71 | 178 | 7.0 | 12.0 | 0.00 | 0.00 | 0.00 | 75 | 1005.4 |
| 20260505051932 | 72 | 169 | 8.0 | 13.0 | 0.00 | 0.00 | 0.00 | 75 | 1005.2 |
| 20260505051830 | 72 | 177 | 8.0 | 12.0 | 0.00 | 0.00 | 0.00 | 74 | 1005.2 |
| 20260505050833 | 72 | 168 | 7.0 | 15.0 | 0.00 | 0.00 | 0.00 | 75 | 1005.4 |
| 20260505041021 | 74 | 177 | 10.0 | 21.0 | 0.00 | 0.00 | 0.00 | 71 | 1005.4 |
| 20260505040119 | 74 | 164 | 13.0 | 18.0 | 0.00 | 0.00 | 0.00 | 71 | 1005.5 |
| 20260505035120 | 74 | 165 | 12.0 | 18.0 | 0.00 | 0.00 | 0.00 | 72 | 1005.5 |
| 20260505034117 | 74 | 162 | 12.0 | 17.0 | 0.00 | 0.00 | 0.00 | 72 | 1005.5 |
| 20260505033119 | 74 | 167 | 7.0 | 15.0 | 0.00 | 0.00 | 0.00 | 72 | 1005.6 |
| 20260505030119 | 74 | 162 | 12.0 | 15.0 | 0.00 | 0.00 | 0.00 | 71 | 1005.5 |
| 20260505025120 | 74 | 160 | 11.0 | 16.0 | 0.00 | 0.00 | 0.00 | 71 | 1005.6 |
| 20260505023218 | 74 | 165 | 8.0 | 13.0 | 0.00 | 0.00 | 0.00 | 70 | 1005.7 |
| 20260505022235 | 74 | 156 | 8.0 | 14.0 | 0.00 | 0.00 | 0.00 | 71 | 1005.6 |
| 20260505021219 | 74 | 158 | 9.0 | 17.0 | 0.00 | 0.00 | 0.00 | 70 | 1005.5 |
| 20260505020218 | 75 | 161 | 10.0 | 15.0 | 0.00 | 0.00 | 0.00 | 70 | 1005.4 |
| 20260505015219 | 75 | 161 | 9.0 | 14.0 | 0.00 | 0.00 | 0.00 | 70 | 1005.4 |
| 20260505014318 | 75 | 158 | 10.0 | 14.0 | 0.00 | 0.00 | 0.00 | 70 | 1005.4 |
| 20260505012417 | 75 | 162 | 9.0 | 15.0 | 0.00 | 0.00 | 0.00 | 69 | 1005.5 |
| 20260505011517 | 75 | 157 | 11.0 | 16.0 | 0.00 | 0.00 | 0.00 | 67 | 1005.4 |
| 20260505010519 | 76 | 157 | 12.0 | 18.0 | 0.00 | 0.00 | 0.00 | 67 | 1005.2 |
| 20260505005534 | 77 | 161 | 12.0 | 16.0 | 0.00 | 0.00 | 0.00 | 66 | 1005.3 |
| 20260505004619 | 77 | 156 | 9.0 | 13.0 | 0.00 | 0.00 | 0.00 | 63 | 1005.4 |
| 20260505002717 | 78 | 169 | 6.0 | 13.0 | 0.00 | 0.00 | 0.00 | 63 | 1005.4 |
| 20260505001735 | 78 | 157 | 9.0 | 12.0 | 0.00 | 0.00 | 0.00 | 61 | 1005.5 |
| 20260505000719 | 79 | 159 | 9.0 | 14.0 | 0.00 | 0.00 | 0.00 | 61 | 1005.7 |
| 20260504235735 | 79 | 166 | 9.0 | 14.0 | 0.00 | 0.00 | 0.00 | 60 | 1005.8 |
| 20260504234820 | 80 | 164 | 14.0 | 18.0 | 0.00 | 0.00 | 0.00 | 58 | 1005.7 |
| 20260504233820 | 80 | 166 | 10.0 | 17.0 | 0.00 | 0.00 | 0.00 | 57 | 1005.9 |
| 20260504232819 | 80 | 165 | 11.0 | 16.0 | 0.00 | 0.00 | 0.00 | 58 | 1005.8 |
| 20260504231818 | 80 | 167 | 8.0 | 14.0 | 0.00 | 0.00 | 0.00 | 57 | 1005.8 |
| 20260504230816 | 80 | 161 | 11.0 | 18.0 | 0.00 | 0.00 | 0.00 | 56 | 1005.9 |
| 20260504225818 | 81 | 163 | 10.0 | 16.0 | 0.00 | 0.00 | 0.00 | 57 | 1006.0 |
| 20260504224817 | 81 | 167 | 17.0 | 22.0 | 0.00 | 0.00 | 0.00 | 55 | 1006.1 |
| 20260504223834 | 81 | 162 | 11.0 | 15.0 | 0.00 | 0.00 | 0.00 | 55 | 1006.3 |
| 20260504222917 | 81 | 171 | 11.0 | 18.0 | 0.00 | 0.00 | 0.00 | 54 | 1006.2 |
| 20260504221919 | 81 | 170 | 12.0 | 20.0 | 0.00 | 0.00 | 0.00 | 54 | 1006.3 |
| 20260504220918 | 81 | 164 | 10.0 | 18.0 | 0.00 | 0.00 | 0.00 | 55 | 1006.2 |
| 20260504215918 | 81 | 173 | 10.0 | 15.0 | 0.00 | 0.00 | 0.00 | 54 | 1006.4 |
| 20260504214918 | 82 | 168 | 15.0 | 22.0 | 0.00 | 0.00 | 0.00 | 54 | 1006.6 |
| 20260504212018 | 83 | 182 | 10.0 | 18.0 | 0.00 | 0.00 | 0.00 | 52 | 1006.9 |
| 20260504211034 | 83 | 179 | 10.0 | 14.0 | 0.00 | 0.00 | 0.00 | 51 | 1007.0 |
| 20260504210036 | 83 | 170 | 15.0 | 21.0 | 0.00 | 0.00 | 0.00 | 51 | 1007.2 |
| 20260504205017 | 83 | 172 | 17.0 | 24.0 | 0.00 | 0.00 | 0.00 | 52 | 1007.3 |
| 20260504204018 | 83 | 183 | 8.0 | 14.0 | 0.00 | 0.00 | 0.00 | 51 | 1007.6 |
| 20260504203018 | 82 | 178 | 8.0 | 14.0 | 0.00 | 0.00 | 0.00 | 52 | 1007.9 |
| 20260504202019 | 82 | 182 | 11.0 | 17.0 | 0.00 | 0.00 | 0.00 | 53 | 1008.1 |
| 20260504201117 | 82 | 175 | 11.0 | 19.0 | 0.00 | 0.00 | 0.00 | 53 | 1008.2 |